Showing default

COSMOS 2587, 63290

Orbit data source: Space-Track

COSMOS 2587, 63290 is a payload satellite owned by VVKO VKS (CIS) in LEO that was launched on Sun, 16 Mar 2025 UTC via an ANGARA-1.2 launch vehicle from the Plesetsk Missile And Space Complex (PKMTR). Payload-class satellites include a variety of spacecraft equipped with specific instruments for various scientific and technological missions. These include communications satellites like Starlink; space stations such as the ISS; scientific satellites like the Hubble; Earth observation satellites from companies like Planet Labs, Umbra, and HawkEye 360; GPS; miniature CubeSats for education and research; and military/defense satellites.

Loading next visibility...
Identifier
63290, 2025-054C
Orbit
LEO
Country
Flag of CISCIS
Related business
Manufacturer
Resehetnev ISS
Mission
Operational Defense Communications
Bus & Motor
STRELA-3M, Unknown motor
Mass
280 kg wet, 280 kg dry
Launch date (UTC)
2025-03-16 (11 months ago)
Launch vehicle
ANGARA-1.2
Launch site
Plesetsk Missile And Space Complex (PKMTR)
Object type
Payload
Rocket body
Debris
Shape & HBR
Cyl + 1 Ant, 1.6 m
Radar Cross Section
1.583 m², Large (>1 m²)

Expand to show TLE details & history
Last TLE update: 7 hours ago

TLE from 7 hours ago
0 COSMOS 2587
1 63290U 25054C   26037.84234079  .00000023  00000-0  92547-4 0  9997
2 63290  82.5010 159.7917 0013707 295.4023  64.5637 12.42886345 40660
Epoch: 2026-02-06T20:12Z
TLE epoch observation values (Epoch: 2026-02-06T20:12:58.244Z)
Latitude
-0.00006°
Longitude
79.57459°
Altitude
1,492.468 km
Speed
7.12 km/s
True Right ascension
10h 39m 10s
True Declination
0° 00' 00"
Sunlit
Object was in full shadow at epoch
Visualization orbit readout
Latitude
Unknown
Longitude
Unknown
Altitude
Unknown
Speed
Unknown
Apparent Right ascension
Unknown
Apparent Declination
Unknown
Sunlit
N/A
Visualization observer readout
Local Sidereal Time
05:42:42
Azimuth
Unknown
Elevation
Unknown
Doppler factor
Unknown
Orbital elements
Apogee altitude
1,502.53 km
Perigee altitude
1,480.955 km
Semi-major axis
7,869.88 km
Eccentricity
0.00137
Inclination
82.501°
RAAN
159.7917°
Arg. of periapsis
295.4023°
True anomaly
64.70565°
Mean anomaly
64.5637°
Eccentric anomaly
64.63466°
Mean motion
3.10879 °/min
Orbital period
115.8 mins
BSTAR
0.000092547
Loading maneuver chart data...
Computing Atmospheric mass density...
Loading historical data...
Loading historical data...
Loading historical data...
Loading historical data...
Loading historical data...
Loading historical data...
Loading historical data...
Other satellites on launch #54 in the year 2025 (2025-03-16 UTC)

Documentation

Showing up to 5 results
|